This is the latest recevied weather packets stored in our database for station/object SV2RCS-13. If no packets are shown the sender has not sent any weather packets the latest 10 day(s).
| Time | Temp. | Humidity | Pressure | Rain* | Wind** | Luminosity | Snow |
|---|---|---|---|---|---|---|---|
| 1777393016 | 18.89° C | 35% | 1013.5 hPa | - | - | - | - |
| 1777392416 | 18.89° C | 35% | 1013.5 hPa | - | - | - | - |
| 1777391816 | 18.89° C | 34% | 1013.5 hPa | - | - | - | - |
| 1777391220 | 19.44° C | 31% | 1013.2 hPa | - | - | - | - |
| 1777390616 | 19.44° C | 32% | 1013.2 hPa | - | - | - | - |
| 1777390016 | 20° C | 32% | 1013.1 hPa | - | - | - | - |
| 1777389419 | 20° C | 30% | 1013 hPa | - | - | - | - |
| 1777388816 | 20° C | 28% | 1013 hPa | - | - | - | - |
| 1777388216 | 20° C | 27% | 1012.9 hPa | - | - | - | - |
| 1777387616 | 20° C | 24% | 1013 hPa | - | - | - | - |
| 1777387016 | 20.56° C | 25% | 1012.9 hPa | - | - | - | - |
| 1777386416 | 20.56° C | 27% | 1013 hPa | - | - | - | - |
| 1777385816 | 20.56° C | 26% | 1012.9 hPa | - | - | - | - |
| 1777385216 | 20.56° C | 25% | 1013.1 hPa | - | - | - | - |
| 1777384616 | 20.56° C | 29% | 1012.9 hPa | - | - | - | - |
| 1777384016 | 20.56° C | 25% | 1013 hPa | - | - | - | - |
| 1777383416 | 20.56° C | 25% | 1013 hPa | - | - | - | - |
| 1777382816 | 20.56° C | 22% | 1013 hPa | - | - | - | - |
| 1777382216 | 20.56° C | 24% | 1013.1 hPa | - | - | - | - |
| 1777381616 | 20.56° C | 24% | 1013.4 hPa | - | - | - | - |
| 1777381016 | 20.56° C | 25% | 1013.6 hPa | - | - | - | - |
| 1777380416 | 20° C | 24% | 1013.6 hPa | - | - | - | - |
| 1777379816 | 20.56° C | 24% | 1013.6 hPa | - | - | - | - |
| 1777379211 | 20.56° C | 25% | 1013.7 hPa | - | - | - | - |
| 1777378616 | 20° C | 25% | 1013.9 hPa | - | - | - | - |
* Rain since midnight (hover to see other rain measurements)
** Current wind speed in m/s (hover to see current wind gust speed)